Back to catalog

USA 40 R/B

AliveHEO
NORAD 20344·ROCKET BODY·🇺🇸 United States

Launched Aug 8, 1989 from Cape Canaveral Space Force Station

Loading…

Next Passes (next 24 hours)

TLE

FreshSource: Space-Track

Epoch: Sep 14, 2026, 14:50 UTC

1 20344U 89061D   26257.61834847  .00000280  00000-0  24594-3 0  9997
2 20344  57.0038 128.0016 3554552   1.4300 359.3993  7.89041045219789

Track USA 40 R/B in real time with AllMySat

Download on the App Store